Weather History for Puyallup, WA

Change the Weather History Date:

Saturday, June 1, 2013

  Actual Average (KTCM) Record (KTCM)
Temperature  
Mean Temperature 60 °F -  
Max Temperature 73 °F 65 °F 95 °F (1970)
Min Temperature 46 °F 45 °F 37 °F (1976)
Degree Days  
Heating Degree Days 6    
Growing Degree Days 10 (Base 50)    
Moisture  
Dew Point 48 °F    
Average Humidity 70    
Maximum Humidity 100    
Minimum Humidity 43    
Precipitation  
Precipitation 0.00 in - - ()
Sea Level Pressure  
Sea Level Pressure 30.16 in    
Wind  
Wind Speed 0 mph (NW)    
Max Wind Speed 8 mph    
Max Gust Speed -    
Visibility 10 miles    
Events      
Averages and records for this station are not official NWS values.
T = Trace of Precipitation, MM = Missing Value Source: NWS Daily Summary

Daily Weather History Graph

Daily Weather History Graph

Search for Another Location

Airport:

Trip Planner

Search our weather history database for the weather conditions in past years. The results will help you decide how hot, cold, wet, or windy it might be!

Date:

Astronomy

Jun. 01, 2013 Rise Set
Actual Time 5:17 AM PDT 8:57 PM PDT
Civil Twilight 4:38 AM PDT 9:36 PM PDT
Nautical Twilight 3:46 AM PDT 10:28 PM PDT
Astronomical Twilight 2:35 AM PDT 11:40 PM PDT
Moon 1:41 AM PDT (6/1) 2:08 PM PDT (6/1)
Length of Visible Light 16h 57m
Length of Day
15h 39m
Last Quarter, 40% of the Moon is Illuminated
Jun 1
Last Quarter
Jun 8
New
Jun 16
First Quarter
Jun 23
Full
Jun 29
Last Quarter

Hourly Weather History & Observations

Time (PDT) Temp. Dew Point Humidity Pressure Visibility Wind Dir Wind Speed Gust Speed Precip Events Conditions
12:15 AM 46.4 °F 44.6 °F 93% 30.26 in 10.0 mi Calm Calm - N/A   Unknown
12:35 AM 46.4 °F 46.4 °F 100% 30.25 in 10.0 mi Calm Calm - N/A   Unknown
12:55 AM 46.4 °F 46.4 °F 100% 30.25 in 10.0 mi Calm Calm - N/A   Unknown
1:15 AM 46.4 °F 46.4 °F 100% 30.26 in 10.0 mi Calm Calm - N/A   Unknown
1:35 AM 46.4 °F 46.4 °F 100% 30.26 in 10.0 mi Calm Calm - N/A   Unknown
1:55 AM 48.2 °F 46.4 °F 93% 30.26 in 10.0 mi Calm Calm - N/A   Unknown
2:15 AM 48.2 °F 46.4 °F 93% 30.26 in 10.0 mi Calm Calm - N/A   Unknown
2:35 AM 46.4 °F 46.4 °F 100% 30.25 in 10.0 mi Calm Calm - N/A   Unknown
2:55 AM 48.2 °F 46.4 °F 93% 30.25 in 10.0 mi Calm Calm - N/A   Unknown
3:15 AM 48.2 °F 46.4 °F 93% 30.25 in 10.0 mi Calm Calm - N/A   Unknown
3:35 AM 48.2 °F 46.4 °F 93% 30.24 in 10.0 mi Calm Calm - N/A   Unknown
3:55 AM 48.2 °F 48.2 °F 100% 30.24 in 10.0 mi Calm Calm - N/A   Unknown
4:15 AM 48.2 °F 48.2 °F 100% 30.24 in 10.0 mi Calm Calm - N/A   Unknown
4:35 AM 48.2 °F 48.2 °F 100% 30.23 in 10.0 mi Calm Calm - N/A   Unknown
4:55 AM 48.2 °F 48.2 °F 100% 30.23 in 10.0 mi Calm Calm - N/A   Unknown
5:15 AM 48.2 °F 48.2 °F 100% 30.23 in 10.0 mi Calm Calm - N/A   Unknown
5:35 AM 48.2 °F 48.2 °F 100% 30.23 in 10.0 mi Calm Calm - N/A   Unknown
5:55 AM 48.2 °F 48.2 °F 100% 30.23 in 10.0 mi Calm Calm - N/A   Unknown
6:15 AM 50.0 °F 48.2 °F 94% 30.23 in 10.0 mi Calm Calm - N/A   Unknown
6:35 AM 50.0 °F 48.2 °F 94% 30.23 in 10.0 mi Calm Calm - N/A   Unknown
6:55 AM 50.0 °F 48.2 °F 94% 30.22 in 10.0 mi Calm Calm - N/A   Unknown
7:15 AM 50.0 °F 48.2 °F 94% 30.22 in 10.0 mi Calm Calm - N/A   Unknown
7:35 AM 51.8 °F 48.2 °F 88% 30.22 in 10.0 mi Calm Calm - N/A   Unknown
7:55 AM 53.6 °F 48.2 °F 82% 30.22 in 10.0 mi Calm Calm - N/A   Unknown
8:15 AM 53.6 °F 48.2 °F 82% 30.22 in 10.0 mi Calm Calm - N/A   Unknown
8:35 AM 55.4 °F 50.0 °F 82% 30.21 in 10.0 mi Calm Calm - N/A   Unknown
8:55 AM 57.2 °F 48.2 °F 72% 30.21 in 10.0 mi Calm Calm - N/A   Unknown
9:15 AM 57.2 °F 48.2 °F 72% 30.21 in 10.0 mi Calm Calm - N/A   Unknown
9:35 AM 59.0 °F 48.2 °F 67% 30.20 in 10.0 mi Calm Calm - N/A   Unknown
9:55 AM 60.8 °F 50.0 °F 68% 30.20 in 10.0 mi Calm Calm - N/A   Unknown
10:15 AM 62.6 °F 48.2 °F 59% 30.20 in 10.0 mi Calm Calm - N/A   Unknown
10:35 AM 62.6 °F 48.2 °F 59% 30.19 in 10.0 mi Calm Calm - N/A   Unknown
10:55 AM 62.6 °F 48.2 °F 59% 30.18 in 10.0 mi Calm Calm - N/A   Unknown
11:15 AM 64.4 °F 46.4 °F 52% 30.18 in 10.0 mi Calm Calm - N/A   Unknown
11:35 AM 66.2 °F 48.2 °F 52% 30.18 in 10.0 mi Calm Calm - N/A   Unknown
11:55 AM 66.2 °F 48.2 °F 52% 30.17 in 10.0 mi Calm Calm - N/A   Unknown
12:15 PM 66.2 °F 48.2 °F 52% 30.17 in 10.0 mi Calm Calm - N/A   Unknown
12:35 PM 68.0 °F 50.0 °F 52% 30.15 in 10.0 mi West 5.8 mph - N/A   Unknown
12:55 PM 68.0 °F 48.2 °F 49% 30.15 in 10.0 mi Calm Calm - N/A   Unknown
1:15 PM 68.0 °F 48.2 °F 49% 30.15 in 10.0 mi Calm Calm - N/A   Unknown
1:35 PM 68.0 °F 48.2 °F 49% 30.14 in 10.0 mi West 3.5 mph - N/A   Unknown
1:55 PM 69.8 °F 46.4 °F 43% 30.13 in 10.0 mi NW 4.6 mph - N/A   Unknown
2:15 PM 69.8 °F 48.2 °F 46% 30.14 in 10.0 mi WNW 3.5 mph - N/A   Unknown
2:35 PM 69.8 °F 48.2 °F 46% 30.14 in 10.0 mi North 3.5 mph - N/A   Unknown
2:55 PM 68.0 °F 50.0 °F 52% 30.13 in 10.0 mi Calm Calm - N/A   Unknown
3:15 PM 68.0 °F 48.2 °F 49% 30.13 in 10.0 mi Calm Calm - N/A   Unknown
3:35 PM 68.0 °F 50.0 °F 52% 30.12 in 10.0 mi Calm Calm - N/A   Unknown
3:55 PM 71.6 °F 50.0 °F 46% 30.12 in 10.0 mi Calm Calm - N/A   Unknown
4:15 PM 71.6 °F 48.2 °F 43% 30.11 in 10.0 mi Calm Calm - N/A   Unknown
4:35 PM 69.8 °F 48.2 °F 46% 30.11 in 10.0 mi Calm Calm - N/A   Unknown
4:55 PM 71.6 °F 48.2 °F 43% 30.10 in 10.0 mi NNW 4.6 mph - N/A   Unknown
5:15 PM 68.0 °F 48.2 °F 49% 30.10 in 10.0 mi Calm Calm - N/A   Unknown
5:35 PM 69.8 °F 48.2 °F 46% 30.09 in 10.0 mi Calm Calm - N/A   Unknown
5:55 PM 71.6 °F 48.2 °F 43% 30.08 in 10.0 mi North 4.6 mph - N/A   Unknown
6:15 PM 73.4 °F 50.0 °F 44% 30.08 in 10.0 mi NW 4.6 mph - N/A   Unknown
6:35 PM 71.6 °F 48.2 °F 43% 30.07 in 10.0 mi NW 3.5 mph - N/A   Unknown
6:55 PM 71.6 °F 48.2 °F 43% 30.07 in 10.0 mi NNW 4.6 mph - N/A   Unknown
7:15 PM 69.8 °F 48.2 °F 46% 30.07 in 10.0 mi Calm Calm - N/A   Unknown
7:35 PM 68.0 °F 50.0 °F 52% 30.07 in 10.0 mi NNW 8.1 mph - N/A   Unknown
7:55 PM 64.4 °F 48.2 °F 56% 30.06 in 10.0 mi Calm Calm - N/A   Unknown
8:15 PM 62.6 °F 48.2 °F 59% 30.06 in 10.0 mi NNW 5.8 mph - N/A   Unknown
8:35 PM 62.6 °F 50.0 °F 63% 30.06 in 10.0 mi Calm Calm - N/A   Unknown
8:55 PM 59.0 °F 48.2 °F 67% 30.06 in 10.0 mi Calm Calm - N/A   Unknown
9:15 PM 59.0 °F 48.2 °F 67% 30.07 in 10.0 mi Calm Calm - N/A   Unknown
9:35 PM 57.2 °F 48.2 °F 72% 30.07 in 10.0 mi Calm Calm - N/A   Unknown
9:55 PM 57.2 °F 46.4 °F 67% 30.08 in 10.0 mi Calm Calm - N/A   Unknown
10:15 PM 57.2 °F 46.4 °F 67% 30.08 in 10.0 mi Calm Calm - N/A   Unknown
10:35 PM 57.2 °F 46.4 °F 67% 30.08 in 10.0 mi Calm Calm - N/A   Unknown
10:55 PM 57.2 °F 46.4 °F 67% 30.08 in 10.0 mi Calm Calm - N/A   Unknown
11:15 PM 55.4 °F 48.2 °F 77% 30.08 in 10.0 mi Calm Calm - N/A   Unknown
11:35 PM 55.4 °F 48.2 °F 77% 30.08 in 10.0 mi Calm Calm - N/A   Unknown
11:55 PM 53.6 °F 48.2 °F 82% 30.08 in 10.0 mi Calm Calm - N/A   Unknown